Regional Weather Roundup
Issued by NWS

Home | Current Version | Previous Version | Text Only | Print | Product List | Glossary Off
Versions: 1 2 3 4 5 6 7 8 9 10 11 12 13 14 15 16 17 18 19 20 21 22 23 24 25 26 27 28 29 30 31 32 33 34 35 36 37 38 39 40 41 42 43 44 45 46 47 48 49 50

000
ASUS46 KSTO 220715
RWRCA

NORTHERN AND CENTRAL CA REGIONAL WEATHER ROUNDUP
NATIONAL WEATHER SERVICE SACRAMENTO CA
1100 PM PST TUE FEB 21 2017

NOTE: FAIR INDICATES FEW OR NO CLOUDS BELOW 12,000 FEET WITH NO
SIGNIFICANT WEATHER AND/OR OBSTRUCTIONS TO VISIBILITY.

CAZ001-003-220800-
NORTHWEST AREA

CITY           SKY/WX    TMP DP  RH WIND       PRES   REMARKS
CRESCENT CITY  CLOUDY    46  44  93 CALM      30.21F
UKIAH          LGT RAIN  44  41  89 CALM      30.24S
$$

CAZ006-505>513-220800-
BAY AREA

CITY           SKY/WX    TMP DP  RH WIND       PRES   REMARKS
SANTA ROSA     CLEAR     44  42  93 CALM      30.23S
SAN RAFAEL     N/A       50  MM  MM MISG
NAPA           PTCLDY    50  44  80 W7        30.24R
CONCORD        PTCLDY    50  45  83 SW6       30.24S
OAKLAND CITY   N/A      MM  MM  MM MISG
OAKLAND        PTCLDY    52  48  86 W12       30.26S
SAN FRAN CITY  N/A       50  MM  79 MISG
SAN FRAN ARPT  PTCLDY    51  44  77 W8        30.25S
LIVERMORE      PTCLDY    48  44  86 S3        30.24S
HAYWARD        PTCLDY    49  43  80 CALM      30.25S
REDWOOD CITY   N/A       46  MM  96 MISG
MOFFETT ARPT   PTCLDY    48  47  96 CALM      30.27S
SAN JOSE ARPT  MOCLDY    50  45  83 CALM      30.26S
$$
CAZ034-037-514>518-220800-
CENTRAL COAST

CITY           SKY/WX    TMP DP  RH WIND       PRES   REMARKS
WATSONVILLE    PTCLDY    46  46 100 NW3       30.26S FOG
SALINAS        MOCLDY    51  46  83 SW5       30.26S
MONTEREY       PTCLDY    51  49  92 S6        30.26S
SAN LUIS OBISP MOCLDY    53  51  93 CALM      30.26S
SANTA MARIA    CLOUDY    52  52 100 S5        30.26S
$$
CAZ015-016-220800-
NORTHERN SACRAMENTO VALLEY

CITY           SKY/WX    TMP DP  RH WIND       PRES   REMARKS
REDDING        CLOUDY    44  40  85 CALM      30.16S
RED BLUFF      CLOUDY    46  40  79 NE5       30.18R
OROVILLE       MOCLDY    50  47  89 SE12      30.19S
$$
CAZ016>018-220800-
SOUTHERN SACRAMENTO VALLEY

CITY           SKY/WX    TMP DP  RH WIND       PRES   REMARKS
AUBURN         CLOUDY    45  45 100 SW6       30.19F
BEALE AFB      CLOUDY    49  47  91 S12       30.17F
LINCOLN        FAIR      48  46  93 S10       30.19F
MARYSVILLE     MOCLDY    50  46  86 S9        30.19F
SAC INTL ARPT  MOCLDY    50  48  93 S6        30.21S
MATHER AIRPORT CLOUDY    48  48 100 S6        30.22S
DOWNTOWN SAC   N/A       51  MM  MM MISG
SAC EXEC ARPT  CLOUDY    50  49  96 S3        30.22S
VACAVILLE      MOCLDY    50  46  86 S6        30.23S
TRAVIS AFB     MOCLDY    48  46  93 W9        30.21S
$$
CAZ019>021-220800-
SAN JOAQUIN VALLEY

CITY           SKY/WX    TMP DP  RH WIND       PRES   REMARKS
STOCKTON       LGT RAIN  50  49  96 SW7       30.23S
MODESTO        CLOUDY    50  45  83 CALM      30.24R
MERCED         PTCLDY    49  45  86 N6        30.24R
LEMOORE        PTCLDY    48  43  82 W8        30.24F
FRESNO         CLOUDY    54  46  74 N6        30.24S
HANFORD        PTCLDY    48  47  96 CALM      30.25F
PORTERVILLE    MOCLDY    50  47  89 SW9       30.25F
BAKERSFIELD    MOCLDY    55  45  68 N5        30.24S
$$
CAZ011-012-071-220800-
NORTHERN MOUNTAINS

CITY           SKY/WX    TMP DP  RH WIND       PRES   REMARKS
YREKA          CLOUDY    37  32  82 VRB3      30.13R
MOUNT SHASTA   MOCLDY    31  28  89 CALM      30.09S
ALTURAS        CLOUDY    33  26  75 CALM      30.08S
$$
CAZ011-012-071-220800-
SIERRA NEVADA MTNS

CITY           SKY/WX    TMP DP  RH WIND       PRES   REMARKS
BLUE CANYON    FRZ RAIN N/A N/A N/A S10       30.10F VSB 1/4
TAHOE VLY ARPT FLURRIES  30  25  81 S6        30.06F WCI  24
MAMMOTH LAKES  CLOUDY    34  19  54 SW16G28   30.06F WCI  24
$$




USA.gov is the U.S. government's official web portal to all federal, state and local government web resources and services.